Hourly Weather Dalandzadgad

Today, 18 January, Monday

Time Temperature Precipitation Wind Pressure Humidity
00:00 -10°C° 0 mm 2 mps 633 mmHg 48%
01:00 -10°C° 0 mm 2 mps 633 mmHg 47%
02:00 -9°C° 0 mm 2 mps 633 mmHg 46%
03:00 -10°C° 0 mm 3 mps 633 mmHg 45%
04:00 -10°C° 0 mm 3 mps 632 mmHg 45%
05:00 -10°C° 0 mm 3 mps 632 mmHg 43%
06:00 -9°C° 0 mm 3 mps 632 mmHg 42%
07:00 -9°C° 0 mm 3 mps 631 mmHg 45%
08:00 -8°C° 0 mm 3 mps 631 mmHg 43%
09:00 -7°C° 0 mm 3 mps 632 mmHg 41%
10:00 -6°C° 0 mm 3 mps 632 mmHg 39%
11:00 -4°C° 0 mm 3 mps 631 mmHg 38%
12:00 -2°C° 0 mm 3 mps 631 mmHg 37%
13:00 -1°C° 0 mm 2 mps 631 mmHg 36%
14:00 -4°C° 0 mm 3 mps 630 mmHg 39%
15:00 -7°C° 0 mm 4 mps 630 mmHg 43%
16:00 -8°C° 0 mm 4 mps 629 mmHg 46%
17:00 -9°C° 0 mm 4 mps 629 mmHg 45%
18:00 -9°C° 0 mm 3 mps 629 mmHg 44%
19:00 -10°C° 0 mm 3 mps 630 mmHg 43%
20:00 -9°C° 0 mm 2 mps 630 mmHg 43%
21:00 -9°C° 0 mm 2 mps 630 mmHg 43%
22:00 -10°C° 0 mm 2 mps 630 mmHg 43%
23:00 -10°C° 0 mm 2 mps 630 mmHg 43%

Tomorrow, 19 January, Tuesday

Time Temperature Precipitation Wind Pressure Humidity
00:00 -9°C° 0 mm 1 mps 630 mmHg 44%
01:00 -10°C° 0 mm 1 mps 630 mmHg 45%
02:00 -10°C° 0 mm 1 mps 629 mmHg 46%
03:00 -11°C° 0 mm 1 mps 629 mmHg 47%
04:00 -11°C° 0 mm 1 mps 629 mmHg 48%
05:00 -11°C° 0 mm 1 mps 629 mmHg 49%
06:00 -11°C° 0 mm 0 mps 629 mmHg 50%
07:00 -12°C° 0 mm 0 mps 629 mmHg 51%
08:00 -10°C° 0 mm 1 mps 630 mmHg 50%
09:00 -9°C° 0 mm 1 mps 631 mmHg 49%
10:00 -8°C° 0 mm 1 mps 631 mmHg 47%
11:00 -8°C° 0 mm 1 mps 631 mmHg 47%
12:00 -7°C° 0 mm 1 mps 631 mmHg 46%
13:00 -7°C° 0 mm 1 mps 631 mmHg 45%
14:00 -7°C° 0 mm 1 mps 631 mmHg 47%
15:00 -8°C° 0 mm 1 mps 630 mmHg 50%
16:00 -8°C° 0 mm 1 mps 630 mmHg 52%
17:00 -9°C° 0 mm 1 mps 630 mmHg 51%
18:00 -9°C° 0 mm 1 mps 630 mmHg 49%
19:00 -10°C° 0 mm 1 mps 630 mmHg 48%
20:00 -10°C° 0 mm 1 mps 631 mmHg 47%
21:00 -10°C° 0 mm 1 mps 631 mmHg 45%
22:00 -10°C° 0 mm 1 mps 631 mmHg 44%
23:00 -10°C° 0 mm 1 mps 631 mmHg 44%

Day after tomorrow, 20 January, Wednesday

Time Temperature Precipitation Wind Pressure Humidity
00:00 -10°C° 0 mm 1 mps 631 mmHg 43%
01:00 -10°C° 0 mm 1 mps 631 mmHg 43%
02:00 -10°C° 0 mm 1 mps 631 mmHg 42%
03:00 -10°C° 0 mm 1 mps 632 mmHg 41%
04:00 -12°C° 0 mm 2 mps 632 mmHg 40%
05:00 -10°C° 0 mm 1 mps 632 mmHg 40%
06:00 -10°C° 0 mm 1 mps 632 mmHg 40%
07:00 -10°C° 0 mm 1 mps 632 mmHg 41%
08:00 -8°C° 0 mm 1 mps 633 mmHg 39%
09:00 -7°C° 0 mm 1 mps 633 mmHg 37%
10:00 -6°C° 0 mm 1 mps 634 mmHg 36%
11:00 -6°C° 0 mm 2 mps 634 mmHg 35%
12:00 -5°C° 0 mm 2 mps 634 mmHg 35%
13:00 -5°C° 0 mm 3 mps 634 mmHg 35%
14:00 -5°C° 0 mm 3 mps 634 mmHg 34%
15:00 -5°C° 0 mm 3 mps 633 mmHg 33%
16:00 -6°C° 0 mm 3 mps 633 mmHg 32%
17:00 -7°C° 0 mm 3 mps 633 mmHg 33%
18:00 -8°C° 0 mm 3 mps 633 mmHg 34%
19:00 -9°C° 0 mm 3 mps 633 mmHg 35%
20:00 -9°C° 0 mm 3 mps 633 mmHg 37%
21:00 -10°C° 0 mm 3 mps 633 mmHg 40%
22:00 -10°C° 0 mm 3 mps 633 mmHg 42%
23:00 -12°C° 0 mm 3 mps 633 mmHg 42%

21 January, Thursday

Time Temperature Precipitation Wind Pressure Humidity
00:00 -12°C° 0 mm 3 mps 633 mmHg 42%
01:00 -10°C° 0 mm 2 mps 633 mmHg 41%
02:00 -12°C° 0 mm 2 mps 633 mmHg 42%
03:00 -13°C° 0 mm 3 mps 633 mmHg 42%
04:00 -13°C° 0 mm 3 mps 633 mmHg 42%
05:00 -13°C° 0 mm 3 mps 633 mmHg 44%
06:00 -14°C° 0 mm 3 mps 634 mmHg 45%
07:00 -14°C° 0 mm 3 mps 634 mmHg 46%
08:00 -13°C° 0 mm 3 mps 635 mmHg 46%
09:00 -10°C° 0 mm 2 mps 635 mmHg 46%
10:00 -9°C° 0 mm 2 mps 636 mmHg 46%
11:00 -7°C° 0 mm 1 mps 636 mmHg 45%
12:00 -6°C° 0 mm 1 mps 636 mmHg 44%
13:00 -6°C° 0 mm 1 mps 636 mmHg 43%
14:00 -6°C° 0 mm 1 mps 635 mmHg 45%
15:00 -7°C° 0 mm 1 mps 635 mmHg 48%
16:00 -7°C° 0 mm 1 mps 635 mmHg 50%
17:00 -8°C° 0 mm 1 mps 635 mmHg 50%
18:00 -8°C° 0 mm 0 mps 635 mmHg 50%
19:00 -9°C° 0 mm 0 mps 635 mmHg 50%
20:00 -9°C° 0 mm 0 mps 635 mmHg 49%
21:00 -9°C° 0 mm 1 mps 635 mmHg 48%
22:00 -10°C° 0 mm 1 mps 635 mmHg 47%
23:00 -10°C° 0 mm 1 mps 634 mmHg 47%

22 January, Friday

Time Temperature Precipitation Wind Pressure Humidity
00:00 -12°C° 0 mm 2 mps 634 mmHg 47%
01:00 -12°C° 0 mm 2 mps 634 mmHg 46%
02:00 -12°C° 0 mm 2 mps 634 mmHg 48%
03:00 -12°C° 0 mm 2 mps 633 mmHg 49%
04:00 -12°C° 0 mm 2 mps 633 mmHg 51%
05:00 -12°C° 0 mm 2 mps 633 mmHg 53%
06:00 -12°C° 0 mm 2 mps 633 mmHg 54%
07:00 -10°C° 0 mm 1 mps 633 mmHg 56%
08:00 -9°C° 0 mm 1 mps 633 mmHg 55%
09:00 -8°C° 0 mm 2 mps 633 mmHg 55%
10:00 -7°C° 0 mm 2 mps 633 mmHg 55%
11:00 -6°C° 0 mm 2 mps 633 mmHg 53%
12:00 -5°C° 0 mm 2 mps 633 mmHg 52%
13:00 -4°C° 0 mm 2 mps 632 mmHg 50%
14:00 -4°C° 0 mm 2 mps 632 mmHg 50%
15:00 -5°C° 0 mm 2 mps 631 mmHg 51%
16:00 -5°C° 0 mm 2 mps 631 mmHg 51%
17:00 -4°C° 0 mm 1 mps 631 mmHg 52%
18:00 -4°C° 0 mm 1 mps 631 mmHg 53%
19:00 -6°C° 0 mm 1 mps 631 mmHg 54%
20:00 -6°C° 0 mm 1 mps 630 mmHg 55%
21:00 -7°C° 0 mm 1 mps 630 mmHg 56%
22:00 -7°C° 0 mm 1 mps 630 mmHg 58%
23:00 -7°C° 0 mm 1 mps 630 mmHg 57%

23 January, Saturday

Time Temperature Precipitation Wind Pressure Humidity
00:00 -7°C° 0 mm 1 mps 630 mmHg 57%
01:00 -7°C° 0 mm 1 mps 630 mmHg 57%
02:00 -8°C° 0 mm 1 mps 630 mmHg 56%
03:00 -8°C° 0 mm 1 mps 629 mmHg 56%
04:00 -8°C° 0 mm 1 mps 629 mmHg 56%
05:00 -8°C° 0 mm 1 mps 630 mmHg 55%
06:00 -8°C° 0 mm 1 mps 630 mmHg 54%
07:00 -8°C° 0 mm 1 mps 630 mmHg 53%
08:00 -7°C° 0 mm 2 mps 631 mmHg 50%
09:00 -6°C° 0 mm 2 mps 631 mmHg 47%
10:00 -5°C° 0 mm 2 mps 632 mmHg 45%
11:00 -4°C° 0 mm 2 mps 632 mmHg 43%
12:00 -2°C° 0 mm 3 mps 632 mmHg 40%
13:00 -1°C° 0 mm 3 mps 631 mmHg 38%
14:00 -2°C° 0 mm 3 mps 631 mmHg 39%
15:00 -2°C° 0 mm 3 mps 631 mmHg 39%
16:00 -4°C° 0 mm 3 mps 631 mmHg 39%
17:00 -4°C° 0 mm 2 mps 631 mmHg 40%
18:00 -5°C° 0 mm 2 mps 631 mmHg 41%
19:00 -4°C° 0 mm 1 mps 631 mmHg 42%
20:00 -6°C° 0 mm 2 mps 631 mmHg 40%
21:00 -5°C° 0 mm 2 mps 631 mmHg 39%
22:00 -6°C° 0 mm 3 mps 631 mmHg 38%
23:00 -7°C° 0 mm 3 mps 631 mmHg 38%
Show more

We Need Your Consent

Meteoprog and our Service Providers may store and access personal data such as cookies, device identifiers or other similar technologies on your device and process such data to personalise content and ads, as well as provide social media features and to analyse the traffic.

  • Store and/or access information on your device

    Cookies, device identifiers or other information can be stored or accessed on your device for the purposes indicated above.

  • Personalised ads and content, ad and content measurement, audience insights, and products development

    Ads and content can be personalised based on a profile. More data can be added to better personalise ads and content. Ad and content performance can be measured. Insights about the audience who saw the ads and content can be derived. Such data can be used to develop or improve user’s experience, systems and software.

By clicking ‘I Agree’ you will allow the use of indicated cookies, device identifiers, web beacons or other similar technologies. Your settings can be changed in the browser on your device.

For certain purposes, legitimate interests may be relied on, rather than consent. You can read more about this in our Privacy and Cookie Policy.